Saint Bonnet de Bellac- Haute Vienne - France
Donnes mto: dimanche, 15/07/2012
Date Horaire Temp. E. Hum. E. P.atmo. Pluie Vent Direction Direction Ensoleilleme Solaire P. de rose Temp au vent Rafales
15/07/2012 00:00 13,1 C 87 % 1016,2 hPa 0,0 mm 4,0 km/h (1 Bft) SO 225 0 min 0 W/m 11,0 C 13,1 C 8,6 km/h (2 Bft)
15/07/2012 00:10 12,9 C 88 % 1016,2 hPa 0,0 mm 4,3 km/h (1 Bft) SO 225 0 min 0 W/m 11,0 C 12,9 C 9,4 km/h (2 Bft)
15/07/2012 00:20 12,8 C 88 % 1016,2 hPa 0,0 mm 6,5 km/h (2 Bft) SO 225 0 min 0 W/m 10,9 C 12,8 C 6,5 km/h (2 Bft)
15/07/2012 00:30 12,8 C 88 % 1016,3 hPa 0,0 mm 4,3 km/h (1 Bft) S-SO 202 0 min 0 W/m 10,9 C 12,8 C 7,9 km/h (2 Bft)
15/07/2012 00:40 12,6 C 89 % 1016,3 hPa 0,0 mm 5,0 km/h (1 Bft) SO 225 0 min 0 W/m 10,8 C 12,6 C 5,0 km/h (1 Bft)
15/07/2012 00:50 12,6 C 89 % 1016,2 hPa 0,0 mm 3,6 km/h (1 Bft) S 180 0 min 0 W/m 10,8 C 12,6 C 4,7 km/h (1 Bft)
15/07/2012 01:00 12,5 C 90 % 1016,3 hPa 0,0 mm 8,3 km/h (2 Bft) S 180 0 min 0 W/m 10,9 C 12,5 C 11,2 km/h (2 Bft)
15/07/2012 01:10 12,5 C 90 % 1016,4 hPa 0,0 mm 4,7 km/h (1 Bft) SO 225 0 min 0 W/m 10,9 C 12,5 C 7,9 km/h (2 Bft)
15/07/2012 01:20 12,6 C 91 % 1016,5 hPa 0,0 mm 4,0 km/h (1 Bft) SO 225 0 min 0 W/m 11,2 C 12,6 C 9,7 km/h (2 Bft)
15/07/2012 01:30 12,6 C 91 % 1016,5 hPa 0,0 mm 7,9 km/h (2 Bft) O-SO 247 0 min 0 W/m 11,2 C 12,6 C 10,4 km/h (2 Bft)
15/07/2012 01:40 12,6 C 91 % 1016,7 hPa 0,0 mm 8,3 km/h (2 Bft) SO 225 0 min 0 W/m 11,2 C 12,6 C 15,8 km/h (3 Bft)
15/07/2012 01:50 12,8 C 91 % 1016,6 hPa 0,0 mm 6,8 km/h (2 Bft) O-SO 247 0 min 0 W/m 11,4 C 12,8 C 6,8 km/h (2 Bft)
15/07/2012 02:00 12,8 C 91 % 1016,6 hPa 0,0 mm 7,9 km/h (2 Bft) SO 225 0 min 0 W/m 11,4 C 12,8 C 13,3 km/h (3 Bft)
15/07/2012 02:10 12,8 C 91 % 1016,7 hPa 0,0 mm 4,3 km/h (1 Bft) SO 225 0 min 0 W/m 11,4 C 12,8 C 10,8 km/h (2 Bft)
15/07/2012 02:20 12,8 C 91 % 1016,7 hPa 0,0 mm 5,0 km/h (1 Bft) O-SO 247 0 min 0 W/m 11,4 C 12,8 C 10,4 km/h (2 Bft)
15/07/2012 02:30 12,8 C 91 % 1016,7 hPa 0,0 mm 4,0 km/h (1 Bft) SO 225 0 min 0 W/m 11,4 C 12,8 C 8,3 km/h (2 Bft)
15/07/2012 02:40 12,8 C 92 % 1016,6 hPa 0,0 mm 6,5 km/h (2 Bft) SO 225 0 min 0 W/m 11,5 C 12,8 C 12,6 km/h (3 Bft)
15/07/2012 02:50 12,8 C 92 % 1016,5 hPa 0,0 mm 6,8 km/h (2 Bft) SO 225 0 min 0 W/m 11,5 C 12,8 C 13,0 km/h (3 Bft)
15/07/2012 03:02 12,9 C 92 % 1016,7 hPa 0,0 mm 6,5 km/h (2 Bft) SO 225 0 min 0 W/m 11,6 C 12,9 C 11,2 km/h (2 Bft)
15/07/2012 03:10 12,9 C 92 % 1016,4 hPa 0,0 mm 3,2 km/h (1 Bft) S-SO 202 0 min 0 W/m 11,6 C 12,9 C 8,6 km/h (2 Bft)
15/07/2012 03:20 13,1 C 92 % 1016,5 hPa 0,0 mm 1,8 km/h (1 Bft) O-SO 247 0 min 0 W/m 11,8 C 13,1 C 1,8 km/h (1 Bft)
15/07/2012 03:30 13,0 C 92 % 1016,5 hPa 0,0 mm 2,2 km/h (1 Bft) S-SO 202 0 min 0 W/m 11,7 C 13,0 C 6,1 km/h (2 Bft)
15/07/2012 03:40 12,9 C 92 % 1016,5 hPa 0,0 mm 3,6 km/h (1 Bft) S-SO 202 0 min 0 W/m 11,6 C 12,9 C 3,6 km/h (1 Bft)
15/07/2012 03:50 12,9 C 92 % 1016,5 hPa 0,0 mm 4,0 km/h (1 Bft) SO 225 0 min 0 W/m 11,6 C 12,9 C 8,3 km/h (2 Bft)
15/07/2012 04:00 12,9 C 92 % 1016,4 hPa 0,0 mm 4,7 km/h (1 Bft) S-SO 202 0 min 0 W/m 11,6 C 12,9 C 13,0 km/h (3 Bft)
15/07/2012 04:10 12,9 C 92 % 1016,3 hPa 0,0 mm 7,9 km/h (2 Bft) SO 225 0 min 0 W/m 11,6 C 12,9 C 12,2 km/h (2 Bft)
15/07/2012 04:20 13,1 C 92 % 1016,3 hPa 0,0 mm 5,4 km/h (2 Bft) SO 225 0 min 0 W/m 11,8 C 13,1 C 9,0 km/h (2 Bft)
15/07/2012 04:30 13,1 C 92 % 1016,3 hPa 0,0 mm 7,9 km/h (2 Bft) SO 225 0 min 0 W/m 11,8 C 13,1 C 14,0 km/h (3 Bft)
15/07/2012 04:40 12,9 C 92 % 1016,4 hPa 0,0 mm 6,1 km/h (2 Bft) S-SO 202 0 min 0 W/m 11,6 C 12,9 C 8,3 km/h (2 Bft)
15/07/2012 04:50 12,9 C 92 % 1016,2 hPa 0,0 mm 3,6 km/h (1 Bft) SO 225 0 min 0 W/m 11,6 C 12,9 C 7,6 km/h (2 Bft)
15/07/2012 05:00 13,0 C 92 % 1016,3 hPa 0,0 mm 7,9 km/h (2 Bft) S-SE 157 0 min 0 W/m 11,7 C 13,0 C 13,7 km/h (3 Bft)
15/07/2012 05:10 13,0 C 92 % 1016,3 hPa 0,0 mm 8,3 km/h (2 Bft) SO 225 0 min 0 W/m 11,7 C 13,0 C 10,4 km/h (2 Bft)
15/07/2012 05:20 13,1 C 92 % 1016,4 hPa 0,1 mm 5,8 km/h (2 Bft) SO 225 0 min 0 W/m 11,8 C 13,1 C 8,6 km/h (2 Bft)
15/07/2012 05:30 13,1 C 92 % 1016,4 hPa 0,0 mm 6,8 km/h (2 Bft) SO 225 0 min 0 W/m 11,8 C 13,1 C 11,2 km/h (2 Bft)
15/07/2012 05:40 13,1 C 92 % 1016,4 hPa 0,0 mm 7,9 km/h (2 Bft) S-SO 202 0 min 0 W/m 11,8 C 13,1 C 11,2 km/h (2 Bft)
15/07/2012 05:50 13,0 C 92 % 1016,7 hPa 0,0 mm 6,1 km/h (2 Bft) SO 225 0 min 0 W/m 11,7 C 13,0 C 6,1 km/h (2 Bft)
15/07/2012 06:00 12,9 C 92 % 1016,7 hPa 0,1 mm 0,0 km/h (0 Bft) O-SO 247 0 min 0 W/m 11,6 C 12,9 C 0,0 km/h (0 Bft)
15/07/2012 06:10 12,9 C 92 % 1016,8 hPa 0,0 mm 4,7 km/h (1 Bft) S-SO 202 0 min 0 W/m 11,6 C 12,9 C 7,9 km/h (2 Bft)
15/07/2012 06:20 12,9 C 92 % 1016,8 hPa 0,0 mm 1,4 km/h (1 Bft) SO 225 0 min 0 W/m 11,6 C 12,9 C 3,6 km/h (1 Bft)
15/07/2012 06:30 12,9 C 92 % 1016,9 hPa 0,0 mm 0,7 km/h (0 Bft) O-SO 247 0 min 0 W/m 11,6 C 12,9 C 3,6 km/h (1 Bft)
15/07/2012 06:40 12,9 C 92 % 1017,0 hPa 0,0 mm 0,7 km/h (0 Bft) O-SO 247 0 min 0 W/m 11,6 C 12,9 C 3,2 km/h (1 Bft)
15/07/2012 06:50 12,9 C 92 % 1017,2 hPa 0,0 mm 1,4 km/h (1 Bft) S 180 0 min 0 W/m 11,6 C 12,9 C 4,3 km/h (1 Bft)
15/07/2012 07:00 12,9 C 92 % 1017,2 hPa 0,0 mm 0,0 km/h (0 Bft) SO 225 0 min 0 W/m 11,6 C 12,9 C 0,0 km/h (0 Bft)
15/07/2012 07:10 12,8 C 92 % 1017,2 hPa 0,0 mm 2,2 km/h (1 Bft) S-SO 202 0 min 0 W/m 11,5 C 12,8 C 6,5 km/h (2 Bft)
15/07/2012 07:20 12,8 C 92 % 1017,2 hPa 0,0 mm 0,4 km/h (0 Bft) SO 225 0 min 0 W/m 11,5 C 12,8 C 3,6 km/h (1 Bft)
15/07/2012 07:30 12,9 C 93 % 1017,2 hPa 0,0 mm 2,5 km/h (1 Bft) O-SO 247 0 min 0 W/m 11,8 C 12,9 C 3,2 km/h (1 Bft)
15/07/2012 07:40 12,9 C 93 % 1017,3 hPa 0,0 mm 0,4 km/h (0 Bft) SO 225 0 min 0 W/m 11,8 C 12,9 C 3,6 km/h (1 Bft)
15/07/2012 07:50 13,0 C 92 % 1017,5 hPa 0,0 mm 0,7 km/h (0 Bft) O-NO 292 0 min 0 W/m 11,7 C 13,0 C 3,2 km/h (1 Bft)
15/07/2012 08:00 13,1 C 92 % 1017,6 hPa 0,0 mm 1,8 km/h (1 Bft) O-SO 247 0 min 0 W/m 11,8 C 13,1 C 4,0 km/h (1 Bft)
15/07/2012 08:10 13,1 C 92 % 1017,8 hPa 0,0 mm 1,1 km/h (1 Bft) SO 225 0 min 0 W/m 11,8 C 13,1 C 4,0 km/h (1 Bft)
15/07/2012 08:20 13,2 C 92 % 1017,9 hPa 0,0 mm 4,0 km/h (1 Bft) O-SO 247 0 min 0 W/m 11,9 C 13,2 C 7,9 km/h (2 Bft)
15/07/2012 08:30 13,3 C 92 % 1018,0 hPa 0,0 mm 1,8 km/h (1 Bft) O-SO 247 0 min 0 W/m 12,0 C 13,3 C 1,8 km/h (1 Bft)
15/07/2012 08:40 13,3 C 92 % 1018,0 hPa 0,0 mm 3,2 km/h (1 Bft) O 270 0 min 0 W/m 12,0 C 13,3 C 7,2 km/h (2 Bft)
15/07/2012 08:50 13,4 C 92 % 1018,2 hPa 0,0 mm 2,2 km/h (1 Bft) O-SO 247 0 min 0 W/m 12,1 C 13,4 C 6,5 km/h (2 Bft)
15/07/2012 09:00 13,5 C 92 % 1018,2 hPa 0,0 mm 1,1 km/h (1 Bft) S-SO 202 0 min 0 W/m 12,2 C 13,5 C 4,3 km/h (1 Bft)
15/07/2012 09:10 13,6 C 91 % 1018,4 hPa 0,0 mm 0,0 km/h (0 Bft) O-SO 247 0 min 0 W/m 12,2 C 13,6 C 0,0 km/h (0 Bft)
15/07/2012 09:20 13,6 C 91 % 1018,5 hPa 0,0 mm 1,1 km/h (1 Bft) O 270 0 min 0 W/m 12,2 C 13,6 C 6,8 km/h (2 Bft)
15/07/2012 09:30 13,4 C 91 % 1018,6 hPa 0,1 mm 0,7 km/h (0 Bft) SO 225 0 min 0 W/m 12,0 C 13,4 C 3,2 km/h (1 Bft)
15/07/2012 09:40 13,4 C 91 % 1018,7 hPa 0,0 mm 1,8 km/h (1 Bft) SO 225 0 min 0 W/m 12,0 C 13,4 C 4,0 km/h (1 Bft)
15/07/2012 09:50 13,5 C 91 % 1018,9 hPa 0,0 mm 2,5 km/h (1 Bft) SO 225 0 min 0 W/m 12,1 C 13,5 C 4,0 km/h (1 Bft)
15/07/2012 10:00 13,9 C 92 % 1019,0 hPa 0,0 mm 0,4 km/h (0 Bft) O-NO 292 0 min 0 W/m 12,6 C 13,9 C 0,4 km/h (0 Bft)
15/07/2012 10:10 14,6 C 90 % 1019,0 hPa 0,0 mm 0,0 km/h (0 Bft) O-SO 247 0 min 0 W/m 13,0 C 14,6 C 1,4 km/h (1 Bft)
15/07/2012 10:20 15,3 C 88 % 1019,1 hPa 0,0 mm 2,2 km/h (1 Bft) O 270 0 min 0 W/m 13,3 C 15,3 C 4,3 km/h (1 Bft)
15/07/2012 10:30 15,9 C 84 % 1019,3 hPa 0,0 mm 4,7 km/h (1 Bft) O-SO 247 0 min 0 W/m 13,2 C 15,9 C 7,2 km/h (2 Bft)
15/07/2012 10:40 16,6 C 82 % 1019,2 hPa 0,0 mm 1,4 km/h (1 Bft) O-SO 247 0 min 0 W/m 13,5 C 16,6 C 4,0 km/h (1 Bft)
15/07/2012 10:50 17,1 C 77 % 1019,4 hPa 0,0 mm 4,7 km/h (1 Bft) N 360 0 min 0 W/m 13,0 C 17,1 C 4,7 km/h (1 Bft)
15/07/2012 11:00 17,3 C 74 % 1019,5 hPa 0,0 mm 6,5 km/h (2 Bft) O-SO 247 0 min 0 W/m 12,6 C 17,3 C 21,2 km/h (4 Bft)
15/07/2012 11:10 17,3 C 74 % 1019,5 hPa 0,0 mm 1,8 km/h (1 Bft) O 270 0 min 0 W/m 12,6 C 17,3 C 4,0 km/h (1 Bft)
15/07/2012 11:20 17,8 C 73 % 1019,5 hPa 0,0 mm 3,2 km/h (1 Bft) NO 315 0 min 0 W/m 12,9 C 17,8 C 8,6 km/h (2 Bft)
15/07/2012 11:30 17,9 C 71 % 1019,7 hPa 0,0 mm 8,6 km/h (2 Bft) O-NO 292 0 min 0 W/m 12,6 C 17,9 C 15,1 km/h (3 Bft)
15/07/2012 11:40 17,8 C 70 % 1019,7 hPa 0,0 mm 4,7 km/h (1 Bft) S-SO 202 0 min 0 W/m 12,3 C 17,8 C 4,7 km/h (1 Bft)
15/07/2012 11:50 18,0 C 69 % 1019,8 hPa 0,0 mm 6,8 km/h (2 Bft) O-SO 247 0 min 0 W/m 12,2 C 18,0 C 6,8 km/h (2 Bft)
15/07/2012 12:00 18,2 C 66 % 1019,9 hPa 0,0 mm 5,0 km/h (1 Bft) S 180 0 min 0 W/m 11,7 C 18,2 C 8,6 km/h (2 Bft)
15/07/2012 12:10 18,2 C 66 % 1019,9 hPa 0,0 mm 2,9 km/h (1 Bft) O-SO 247 0 min 0 W/m 11,7 C 18,2 C 4,3 km/h (1 Bft)
15/07/2012 12:20 18,5 C 66 % 1020,0 hPa 0,0 mm 4,0 km/h (1 Bft) O 270 0 min 0 W/m 12,0 C 18,5 C 4,3 km/h (1 Bft)
15/07/2012 12:30 19,2 C 65 % 1020,1 hPa 0,0 mm 1,8 km/h (1 Bft) SO 225 0 min 0 W/m 12,5 C 19,2 C 4,3 km/h (1 Bft)
15/07/2012 12:40 19,2 C 63 % 1020,3 hPa 0,0 mm 2,5 km/h (1 Bft) SO 225 0 min 0 W/m 12,0 C 19,2 C 4,3 km/h (1 Bft)
15/07/2012 12:50 18,6 C 63 % 1020,4 hPa 0,0 mm 4,3 km/h (1 Bft) O-SO 247 0 min 0 W/m 11,4 C 18,6 C 4,3 km/h (1 Bft)
15/07/2012 13:00 18,3 C 62 % 1020,4 hPa 0,0 mm 6,8 km/h (2 Bft) NO 315 0 min 0 W/m 10,9 C 18,3 C 6,8 km/h (2 Bft)
15/07/2012 13:10 18,2 C 64 % 1020,4 hPa 0,0 mm 2,9 km/h (1 Bft) SO 225 0 min 0 W/m 11,3 C 18,2 C 4,3 km/h (1 Bft)
15/07/2012 13:20 18,5 C 65 % 1020,4 hPa 0,0 mm 9,0 km/h (2 Bft) O 270 0 min 0 W/m 11,8 C 18,5 C 10,8 km/h (2 Bft)
15/07/2012 13:30 12,4 C 78 % 1019,0 hPa 0,0 mm 0,0 km/h (0 Bft) O 270 0 min 0 W/m 8,7 C 12,4 C 0,0 km/h (0 Bft)
15/07/2012 13:40 19,8 C 60 % 1020,5 hPa 0,0 mm 8,6 km/h (2 Bft) O-SO 247 0 min 0 W/m 11,8 C 19,8 C 13,0 km/h (3 Bft)
15/07/2012 13:50 20,3 C 60 % 1020,5 hPa 0,0 mm 2,2 km/h (1 Bft) O-SO 247 0 min 0 W/m 12,3 C 20,3 C 4,0 km/h (1 Bft)
15/07/2012 14:00 20,2 C 58 % 1020,6 hPa 0,0 mm 6,5 km/h (2 Bft) S-SO 202 0 min 0 W/m 11,7 C 20,2 C 13,3 km/h (3 Bft)
15/07/2012 14:10 19,8 C 60 % 1020,7 hPa 0,0 mm 0,0 km/h (0 Bft) O 270 0 min 0 W/m 11,8 C 19,8 C 0,0 km/h (0 Bft)
15/07/2012 14:20 19,5 C 61 % 1020,8 hPa 0,0 mm 1,1 km/h (1 Bft) S-SO 202 0 min 0 W/m 11,8 C 19,5 C 3,6 km/h (1 Bft)
15/07/2012 14:30 19,3 C 62 % 1020,8 hPa 0,0 mm 1,8 km/h (1 Bft) O 270 0 min 0 W/m 11,8 C 19,3 C 1,8 km/h (1 Bft)
15/07/2012 14:40 19,5 C 60 % 1020,8 hPa 0,0 mm 7,6 km/h (2 Bft) O-NO 292 0 min 0 W/m 11,5 C 19,5 C 7,6 km/h (2 Bft)
15/07/2012 14:50 19,8 C 61 % 1021,0 hPa 0,0 mm 4,3 km/h (1 Bft) O-SO 247 0 min 0 W/m 12,1 C 19,8 C 4,3 km/h (1 Bft)
15/07/2012 15:00 19,8 C 58 % 1021,1 hPa 0,0 mm 5,8 km/h (2 Bft) O-SO 247 0 min 0 W/m 11,3 C 19,8 C 12,2 km/h (2 Bft)
15/07/2012 15:10 19,4 C 61 % 1021,1 hPa 0,0 mm 4,3 km/h (1 Bft) S 180 0 min 0 W/m 11,7 C 19,4 C 4,3 km/h (1 Bft)
15/07/2012 15:20 19,2 C 61 % 1021,2 hPa 0,0 mm 4,7 km/h (1 Bft) SO 225 0 min 0 W/m 11,5 C 19,2 C 8,3 km/h (2 Bft)
15/07/2012 15:30 19,2 C 62 % 1021,2 hPa 0,0 mm 5,0 km/h (1 Bft) O-SO 247 0 min 0 W/m 11,7 C 19,2 C 7,9 km/h (2 Bft)
15/07/2012 15:40 19,5 C 60 % 1021,4 hPa 0,0 mm 6,8 km/h (2 Bft) O-SO 247 0 min 0 W/m 11,5 C 19,5 C 11,5 km/h (2 Bft)
15/07/2012 15:50 19,4 C 61 % 1021,7 hPa 0,0 mm 10,1 km/h (2 Bft) O-SO 247 0 min 0 W/m 11,7 C 19,4 C 10,1 km/h (2 Bft)
15/07/2012 16:00 18,2 C 66 % 1022,0 hPa 0,0 mm 9,7 km/h (2 Bft) NO 315 0 min 0 W/m 11,7 C 18,2 C 14,4 km/h (3 Bft)
15/07/2012 16:10 16,9 C 71 % 1022,1 hPa 0,1 mm 4,3 km/h (1 Bft) N-NO 337 0 min 0 W/m 11,6 C 16,9 C 4,3 km/h (1 Bft)
15/07/2012 16:20 16,3 C 75 % 1022,2 hPa 0,0 mm 0,7 km/h (0 Bft) O 270 0 min 0 W/m 11,9 C 16,3 C 4,3 km/h (1 Bft)
15/07/2012 16:30 16,2 C 76 % 1022,0 hPa 0,0 mm 3,6 km/h (1 Bft) N-NO 337 0 min 0 W/m 12,0 C 16,2 C 4,3 km/h (1 Bft)
15/07/2012 16:40 16,4 C 77 % 1022,0 hPa 0,0 mm 3,2 km/h (1 Bft) S-SO 202 0 min 0 W/m 12,4 C 16,4 C 6,5 km/h (2 Bft)
15/07/2012 16:50 16,9 C 76 % 1022,1 hPa 0,0 mm 4,7 km/h (1 Bft) SO 225 0 min 0 W/m 12,6 C 16,9 C 4,7 km/h (1 Bft)
15/07/2012 17:00 17,5 C 71 % 1021,9 hPa 0,0 mm 8,3 km/h (2 Bft) SO 225 0 min 0 W/m 12,2 C 17,5 C 12,2 km/h (2 Bft)
15/07/2012 17:10 18,1 C 69 % 1021,9 hPa 0,0 mm 4,0 km/h (1 Bft) SO 225 0 min 0 W/m 12,3 C 18,1 C 7,6 km/h (2 Bft)
15/07/2012 17:20 18,3 C 66 % 1022,0 hPa 0,0 mm 4,0 km/h (1 Bft) SO 225 0 min 0 W/m 11,8 C 18,3 C 4,0 km/h (1 Bft)
15/07/2012 17:30 18,3 C 67 % 1021,9 hPa 0,0 mm 2,5 km/h (1 Bft) SO 225 0 min 0 W/m 12,1 C 18,3 C 4,3 km/h (1 Bft)
15/07/2012 17:40 18,4 C 66 % 1021,9 hPa 0,0 mm 7,2 km/h (2 Bft) O 270 0 min 0 W/m 11,9 C 18,4 C 9,4 km/h (2 Bft)
15/07/2012 17:50 18,8 C 63 % 1022,1 hPa 0,0 mm 4,7 km/h (1 Bft) S-SO 202 0 min 0 W/m 11,6 C 18,8 C 4,7 km/h (1 Bft)
15/07/2012 18:00 18,9 C 62 % 1022,2 hPa 0,0 mm 5,0 km/h (1 Bft) S-SO 202 0 min 0 W/m 11,5 C 18,9 C 13,7 km/h (3 Bft)
15/07/2012 18:10 19,1 C 62 % 1022,2 hPa 0,0 mm 1,8 km/h (1 Bft) O-SO 247 0 min 0 W/m 11,6 C 19,1 C 6,5 km/h (2 Bft)
15/07/2012 18:20 19,2 C 61 % 1022,2 hPa 0,0 mm 1,1 km/h (1 Bft) O-SO 247 0 min 0 W/m 11,5 C 19,2 C 3,6 km/h (1 Bft)
15/07/2012 18:30 19,2 C 60 % 1022,2 hPa 0,0 mm 0,4 km/h (0 Bft) SO 225 0 min 0 W/m 11,2 C 19,2 C 1,8 km/h (1 Bft)
15/07/2012 18:40 19,3 C 60 % 1022,1 hPa 0,0 mm 4,0 km/h (1 Bft) O-SO 247 0 min 0 W/m 11,3 C 19,3 C 6,8 km/h (2 Bft)
15/07/2012 18:50 19,3 C 59 % 1022,1 hPa 0,0 mm 3,2 km/h (1 Bft) O-SO 247 0 min 0 W/m 11,1 C 19,3 C 8,3 km/h (2 Bft)
15/07/2012 19:00 19,3 C 60 % 1022,2 hPa 0,0 mm 5,0 km/h (1 Bft) O-SO 247 0 min 0 W/m 11,3 C 19,3 C 5,0 km/h (1 Bft)
15/07/2012 19:10 19,1 C 60 % 1022,3 hPa 0,0 mm 5,4 km/h (2 Bft) O 270 0 min 0 W/m 11,1 C 19,1 C 13,3 km/h (3 Bft)
15/07/2012 19:20 19,3 C 61 % 1022,3 hPa 0,0 mm 2,5 km/h (1 Bft) O-SO 247 0 min 0 W/m 11,6 C 19,3 C 2,5 km/h (1 Bft)
15/07/2012 19:30 19,5 C 60 % 1022,4 hPa 0,0 mm 4,3 km/h (1 Bft) SO 225 0 min 0 W/m 11,5 C 19,5 C 7,2 km/h (2 Bft)
15/07/2012 19:40 19,4 C 59 % 1022,5 hPa 0,0 mm 3,6 km/h (1 Bft) O-SO 247 0 min 0 W/m 11,2 C 19,4 C 3,6 km/h (1 Bft)
15/07/2012 19:50 19,3 C 61 % 1022,6 hPa 0,0 mm 2,2 km/h (1 Bft) O 270 0 min 0 W/m 11,6 C 19,3 C 6,1 km/h (2 Bft)
15/07/2012 20:00 19,2 C 59 % 1022,7 hPa 0,0 mm 4,7 km/h (1 Bft) O-SO 247 0 min 0 W/m 11,0 C 19,2 C 11,9 km/h (2 Bft)
15/07/2012 20:10 18,9 C 60 % 1022,8 hPa 0,0 mm 8,3 km/h (2 Bft) O-SO 247 0 min 0 W/m 11,0 C 18,9 C 12,2 km/h (2 Bft)
15/07/2012 20:20 18,4 C 61 % 1022,9 hPa 0,0 mm 3,2 km/h (1 Bft) SO 225 0 min 0 W/m 10,7 C 18,4 C 8,6 km/h (2 Bft)
15/07/2012 20:30 17,9 C 63 % 1023,0 hPa 0,0 mm 2,2 km/h (1 Bft) SO 225 0 min 0 W/m 10,8 C 17,9 C 4,0 km/h (1 Bft)
15/07/2012 20:40 17,4 C 65 % 1023,1 hPa 0,0 mm 6,5 km/h (2 Bft) O 270 0 min 0 W/m 10,8 C 17,4 C 14,4 km/h (3 Bft)
15/07/2012 20:50 17,1 C 66 % 1023,2 hPa 0,0 mm 1,8 km/h (1 Bft) O 270 0 min 0 W/m 10,7 C 17,1 C 4,3 km/h (1 Bft)
15/07/2012 21:00 16,8 C 68 % 1023,5 hPa 0,0 mm 2,9 km/h (1 Bft) SO 225 0 min 0 W/m 10,9 C 16,8 C 4,3 km/h (1 Bft)
15/07/2012 21:10 16,5 C 68 % 1023,6 hPa 0,0 mm 0,0 km/h (0 Bft) O-NO 292 0 min 0 W/m 10,6 C 16,5 C 2,9 km/h (1 Bft)
15/07/2012 21:20 16,2 C 69 % 1023,6 hPa 0,0 mm 0,0 km/h (0 Bft) O-SO 247 0 min 0 W/m 10,5 C 16,2 C 0,0 km/h (0 Bft)
15/07/2012 21:30 15,8 C 69 % 1023,7 hPa 0,0 mm 1,1 km/h (1 Bft) O-SO 247 0 min 0 W/m 10,1 C 15,8 C 4,7 km/h (1 Bft)
15/07/2012 21:40 15,5 C 70 % 1023,7 hPa 0,0 mm 0,0 km/h (0 Bft) O-SO 247 0 min 0 W/m 10,1 C 15,5 C 0,0 km/h (0 Bft)
15/07/2012 21:50 15,1 C 71 % 1023,7 hPa 0,0 mm 0,0 km/h (0 Bft) S 180 0 min 0 W/m 9,9 C 15,1 C 0,0 km/h (0 Bft)
15/07/2012 22:00 14,8 C 72 % 1023,8 hPa 0,0 mm 0,0 km/h (0 Bft) SO 225 0 min 0 W/m 9,8 C 14,8 C 0,0 km/h (0 Bft)
15/07/2012 22:10 14,3 C 73 % 1023,9 hPa 0,0 mm 0,0 km/h (0 Bft) O-SO 247 0 min 0 W/m 9,5 C 14,3 C 0,0 km/h (0 Bft)
15/07/2012 22:20 14,0 C 75 % 1024,0 hPa 0,0 mm 1,4 km/h (1 Bft) SO 225 0 min 0 W/m 9,6 C 14,0 C 1,4 km/h (1 Bft)
15/07/2012 22:30 13,8 C 76 % 1024,3 hPa 0,0 mm 0,7 km/h (0 Bft) O-NO 292 0 min 0 W/m 9,6 C 13,8 C 1,4 km/h (1 Bft)
_ Min-Heure 13:30 15:00 04:50 - 22:10 - - - - 13:30 13:30 22:10
Minimum _ 12,4 C 58 % 1016,2 hPa - 0,0 km/h (0 Bft) - - - - 8,7 C 12,4 C 0,0 km/h (0 Bft)
_ Max-Heure 13:50 07:40 22:30 16:10 15:50 - - 22:30 22:30 10:40 13:50 11:00
Maximum _ 20,3 C 93 % 1024,3 hPa 0,1 mm 10,1 km/h
O-SO (2 Bft)
- - 0 min 0 W/m 13,5 C 20,3 C 21,2 km/h
O-SO (4 Bft)
Moyenne _ 15,7 C 78 % 1019,5 hPa #0,4 mm 3,8 km/h (1 Bft) SO - #0 min. 0 W/m 11,6 C 15,7 C 6,6 km/h (2 Bft)
Saint Bonnet de Bellac- Haute Vienne - France